Time,TemperatureF,DewpointF,PressureIn,WindDirection,WindDirectionDegrees,WindSpeedMPH,WindSpeedGustMPH,Humidity,HourlyPrecipIn,Conditions,Clouds,dailyrainin,SoftwareType,DateUTC
2013-06-05 00:03:00,72.2,71.0,29.95,SW,222,0.0,0.0,96,0.00,,,0.00,weatherlink.com 1.10,2013-06-05 05:03:00,
2013-06-05 00:18:00,72.1,71.0,29.94,SW,222,0.0,0.0,96,0.00,,,0.00,weatherlink.com 1.10,2013-06-05 05:18:00,
2013-06-05 00:33:00,72.0,71.0,29.94,SSW,207,0.0,0.0,96,0.00,,,0.00,weatherlink.com 1.10,2013-06-05 05:33:00,
2013-06-05 00:48:00,72.0,71.0,29.94,SSW,207,0.0,0.0,96,0.00,,,0.00,weatherlink.com 1.10,2013-06-05 05:48:00,
2013-06-05 01:03:00,72.1,71.0,29.94,SSW,207,0.0,0.0,96,0.00,,,0.00,weatherlink.com 1.10,2013-06-05 06:03:00,
2013-06-05 01:18:00,72.5,71.0,29.94,ESE,108,0.0,0.0,96,0.00,,,0.00,weatherlink.com 1.10,2013-06-05 06:18:00,
2013-06-05 01:33:00,73.0,72.0,29.93,SSE,152,0.0,0.0,96,0.00,,,0.00,weatherlink.com 1.10,2013-06-05 06:33:00,
2013-06-05 01:48:00,72.9,72.0,29.93,ESE,120,0.0,0.0,96,0.00,,,0.00,weatherlink.com 1.10,2013-06-05 06:48:00,
2013-06-05 02:03:00,72.4,71.0,29.93,East,79,0.0,1.0,96,0.00,,,0.00,weatherlink.com 1.10,2013-06-05 07:03:00,
2013-06-05 02:18:00,72.2,71.0,29.93,East,79,0.0,0.0,96,0.00,,,0.00,weatherlink.com 1.10,2013-06-05 07:18:00,
2013-06-05 02:33:00,72.3,71.0,29.92,East,79,0.0,1.0,96,0.00,,,0.00,weatherlink.com 1.10,2013-06-05 07:33:00,
2013-06-05 02:48:00,72.7,72.0,29.93,NE,49,0.0,2.0,96,0.00,,,0.00,weatherlink.com 1.10,2013-06-05 07:48:00,
2013-06-05 03:03:00,73.1,72.0,29.93,East,99,0.0,4.0,96,0.00,,,0.00,weatherlink.com 1.10,2013-06-05 08:03:00,
2013-06-05 03:18:00,73.1,72.0,29.93,ENE,63,1.0,5.0,96,0.00,,,0.00,weatherlink.com 1.10,2013-06-05 08:18:00,
2013-06-05 03:34:00,73.2,72.0,29.94,North,354,0.0,1.0,96,0.00,,,0.00,weatherlink.com 1.10,2013-06-05 08:34:00,
2013-06-05 03:49:00,73.3,72.0,29.94,North,352,0.0,2.0,96,0.00,,,0.00,weatherlink.com 1.10,2013-06-05 08:49:00,
2013-06-05 04:04:00,73.4,72.0,29.94,NNW,342,0.0,2.0,96,0.00,,,0.00,weatherlink.com 1.10,2013-06-05 09:04:00,
2013-06-05 04:19:00,73.6,72.0,29.95,ENE,60,1.0,2.0,96,0.00,,,0.00,weatherlink.com 1.10,2013-06-05 09:19:00,
2013-06-05 04:34:00,73.8,73.0,29.95,ESE,110,0.0,4.0,96,0.00,,,0.00,weatherlink.com 1.10,2013-06-05 09:34:00,
2013-06-05 04:49:00,71.8,71.0,29.95,SE,143,1.0,12.0,96,0.00,,,0.00,weatherlink.com 1.10,2013-06-05 09:49:00,
2013-06-05 05:04:00,70.3,69.0,29.96,ENE,77,2.0,9.0,96,0.01,,,0.01,weatherlink.com 1.10,2013-06-05 10:04:00,
2013-06-05 05:19:00,69.2,68.0,29.96,West,269,2.0,10.0,95,0.01,,,0.01,weatherlink.com 1.10,2013-06-05 10:19:00,
2013-06-05 05:34:00,68.8,67.0,29.95,NE,45,0.0,4.0,95,0.02,,,0.02,weatherlink.com 1.10,2013-06-05 10:34:00,
2013-06-05 05:49:00,68.4,67.0,29.95,NW,319,0.0,1.0,96,0.02,,,0.02,weatherlink.com 1.10,2013-06-05 10:49:00,
2013-06-05 06:04:00,68.3,67.0,29.94,NE,42,0.0,0.0,96,0.01,,,0.02,weatherlink.com 1.10,2013-06-05 11:04:00,
2013-06-05 06:19:00,67.9,67.0,29.93,NE,44,0.0,1.0,96,0.01,,,0.02,weatherlink.com 1.10,2013-06-05 11:19:00,
2013-06-05 06:34:00,68.0,67.0,29.93,WSW,240,0.0,0.0,97,0.00,,,0.02,weatherlink.com 1.10,2013-06-05 11:34:00,
2013-06-05 06:49:00,68.3,67.0,29.92,WSW,240,0.0,0.0,96,0.00,,,0.02,weatherlink.com 1.10,2013-06-05 11:49:00,
2013-06-05 07:04:00,68.6,68.0,29.92,SSW,210,0.0,0.0,96,0.00,,,0.02,weatherlink.com 1.10,2013-06-05 12:04:00,
2013-06-05 07:19:00,69.4,69.0,29.91,SSE,165,1.0,4.0,97,0.00,,,0.02,weatherlink.com 1.10,2013-06-05 12:19:00,
2013-06-05 07:34:00,70.6,70.0,29.90,SW,217,0.0,4.0,96,0.00,,,0.02,weatherlink.com 1.10,2013-06-05 12:34:00,
2013-06-05 07:49:00,72.9,71.0,29.89,SW,215,1.0,8.0,94,0.00,,,0.02,weatherlink.com 1.10,2013-06-05 12:49:00,
2013-06-05 08:04:00,74.8,72.0,29.90,SSW,193,3.0,4.0,92,0.00,,,0.02,weatherlink.com 1.10,2013-06-05 13:04:00,
2013-06-05 08:19:00,77.4,73.0,29.90,SSE,153,2.0,3.0,87,0.00,,,0.02,weatherlink.com 1.10,2013-06-05 13:19:00,
2013-06-05 08:34:00,79.5,74.0,29.90,South,188,0.0,8.0,82,0.00,,,0.02,weatherlink.com 1.10,2013-06-05 13:34:00,
2013-06-05 08:49:00,80.6,75.0,29.91,SSW,207,0.0,4.0,83,0.00,,,0.02,weatherlink.com 1.10,2013-06-05 13:49:00,
2013-06-05 09:04:00,82.1,75.0,29.92,SE,131,1.0,2.0,79,0.00,,,0.02,weatherlink.com 1.10,2013-06-05 14:04:00,
2013-06-05 09:19:00,83.4,76.0,29.93,East,81,2.0,5.0,78,0.00,,,0.02,weatherlink.com 1.10,2013-06-05 14:19:00,
2013-06-05 09:34:00,81.5,75.0,29.94,North,352,1.0,5.0,81,0.00,,,0.02,weatherlink.com 1.10,2013-06-05 14:34:00,
2013-06-05 09:49:00,80.1,75.0,29.95,ENE,68,3.0,6.0,84,0.00,,,0.02,weatherlink.com 1.10,2013-06-05 14:49:00,
2013-06-05 10:04:00,81.5,75.0,29.95,NW,323,5.0,8.0,80,0.00,,,0.02,weatherlink.com 1.10,2013-06-05 15:04:00,
2013-06-05 10:19:00,81.0,75.0,29.95,NE,49,3.0,7.0,83,0.00,,,0.02,weatherlink.com 1.10,2013-06-05 15:19:00,
2013-06-05 10:34:00,81.3,76.0,29.95,NW,316,4.0,6.0,83,0.00,,,0.02,weatherlink.com 1.10,2013-06-05 15:34:00,
2013-06-05 10:49:00,80.8,75.0,29.95,NNW,347,4.0,10.0,82,0.00,,,0.02,weatherlink.com 1.10,2013-06-05 15:49:00,
2013-06-05 11:04:00,81.0,75.0,29.95,ESE,118,4.0,6.0,82,0.00,,,0.02,weatherlink.com 1.10,2013-06-05 16:04:00,
2013-06-05 11:19:00,81.5,75.0,29.95,East,91,7.0,7.0,80,0.00,,,0.02,weatherlink.com 1.10,2013-06-05 16:19:00,
2013-06-05 11:34:00,82.6,76.0,29.94,NW,311,3.0,10.0,79,0.00,,,0.02,weatherlink.com 1.10,2013-06-05 16:34:00,
2013-06-05 11:50:00,84.5,76.0,29.94,NW,326,3.0,9.0,76,0.00,,,0.02,weatherlink.com 1.10,2013-06-05 16:50:00,
2013-06-05 12:05:00,84.1,76.0,29.93,ESE,103,0.0,9.0,77,0.00,,,0.02,weatherlink.com 1.10,2013-06-05 17:05:00,
2013-06-05 12:20:00,85.3,76.0,29.93,NNW,337,1.0,8.0,74,0.00,,,0.02,weatherlink.com 1.10,2013-06-05 17:20:00,
2013-06-05 12:35:00,84.4,76.0,29.92,ENE,67,3.0,8.0,75,0.00,,,0.02,weatherlink.com 1.10,2013-06-05 17:35:00,
2013-06-05 12:50:00,84.1,75.0,29.91,ENE,59,2.0,5.0,75,0.00,,,0.02,weatherlink.com 1.10,2013-06-05 17:50:00,
2013-06-05 13:05:00,84.5,75.0,29.91,WNW,299,2.0,3.0,74,0.00,,,0.02,weatherlink.com 1.10,2013-06-05 18:05:00,
2013-06-05 13:20:00,84.4,75.0,29.91,SSE,152,0.0,4.0,74,0.00,,,0.02,weatherlink.com 1.10,2013-06-05 18:20:00,
2013-06-05 13:35:00,83.3,75.0,29.91,South,191,0.0,3.0,76,0.00,,,0.02,weatherlink.com 1.10,2013-06-05 18:35:00,
2013-06-05 13:50:00,82.2,76.0,29.89,East,101,1.0,4.0,81,0.00,,,0.02,weatherlink.com 1.10,2013-06-05 18:50:00,
2013-06-05 14:05:00,84.3,77.0,29.89,WSW,242,0.0,4.0,79,0.00,,,0.02,weatherlink.com 1.10,2013-06-05 19:05:00,
2013-06-05 14:20:00,84.1,77.0,29.89,SE,146,6.0,6.0,80,0.00,,,0.02,weatherlink.com 1.10,2013-06-05 19:20:00,
2013-06-05 14:35:00,82.2,76.0,29.89,ESE,117,2.0,6.0,82,0.00,,,0.02,weatherlink.com 1.10,2013-06-05 19:35:00,
2013-06-05 14:50:00,82.3,76.0,29.88,SE,134,1.0,8.0,82,0.00,,,0.02,weatherlink.com 1.10,2013-06-05 19:50:00,
2013-06-05 15:05:00,82.4,76.0,29.88,WSW,255,0.0,7.0,80,0.00,,,0.02,weatherlink.com 1.10,2013-06-05 20:05:00,
2013-06-05 15:20:00,82.7,76.0,29.87,SSW,203,3.0,9.0,79,0.00,,,0.02,weatherlink.com 1.10,2013-06-05 20:20:00,
2013-06-05 15:35:00,83.3,75.0,29.87,SSW,195,2.0,12.0,77,0.00,,,0.02,weatherlink.com 1.10,2013-06-05 20:35:00,
2013-06-05 15:50:00,83.5,76.0,29.87,SE,137,2.0,10.0,77,0.00,,,0.02,weatherlink.com 1.10,2013-06-05 20:50:00,
2013-06-05 16:05:00,82.8,76.0,29.86,SW,215,2.0,10.0,79,0.00,,,0.02,weatherlink.com 1.10,2013-06-05 21:05:00,
2013-06-05 16:20:00,82.0,75.0,29.85,East,86,4.0,12.0,78,0.00,,,0.02,weatherlink.com 1.10,2013-06-05 21:20:00,
2013-06-05 16:35:00,81.9,74.0,29.86,East,91,0.0,11.0,78,0.00,,,0.02,weatherlink.com 1.10,2013-06-05 21:35:00,
2013-06-05 16:50:00,81.0,74.0,29.86,SE,134,0.0,4.0,79,0.00,,,0.02,weatherlink.com 1.10,2013-06-05 21:50:00,
2013-06-05 17:05:00,80.5,73.0,29.86,SW,221,0.0,4.0,79,0.00,,,0.02,weatherlink.com 1.10,2013-06-05 22:05:00,
2013-06-05 17:35:00,79.7,73.0,29.85,East,88,2.0,5.0,80,0.00,,,0.02,weatherlink.com 1.10,2013-06-05 22:35:00,
2013-06-05 17:50:00,79.5,74.0,29.85,SSE,158,1.0,7.0,83,0.00,,,0.02,weatherlink.com 1.10,2013-06-05 22:50:00,
2013-06-05 18:05:00,79.3,74.0,29.84,ESE,105,3.0,3.0,84,0.00,,,0.02,weatherlink.com 1.10,2013-06-05 23:05:00,
2013-06-05 18:20:00,79.0,74.0,29.85,ESE,117,1.0,5.0,84,0.00,,,0.02,weatherlink.com 1.10,2013-06-05 23:20:00,
2013-06-05 18:35:00,79.0,74.0,29.85,SE,139,0.0,3.0,84,0.00,,,0.02,weatherlink.com 1.10,2013-06-05 23:35:00,
2013-06-05 18:50:00,79.1,74.0,29.85,SSE,163,2.0,3.0,85,0.00,,,0.02,weatherlink.com 1.10,2013-06-05 23:50:00,
2013-06-05 19:05:00,78.5,74.0,29.87,South,176,0.0,5.0,86,0.00,,,0.02,weatherlink.com 1.10,2013-06-06 00:05:00,
2013-06-05 19:20:00,77.8,74.0,29.87,SE,145,2.0,6.0,87,0.00,,,0.02,weatherlink.com 1.10,2013-06-06 00:20:00,
2013-06-05 19:35:00,77.2,74.0,29.86,ENE,78,0.0,4.0,89,0.00,,,0.02,weatherlink.com 1.10,2013-06-06 00:35:00,
2013-06-05 19:50:00,76.6,73.0,29.86,SSW,200,1.0,9.0,89,0.00,,,0.02,weatherlink.com 1.10,2013-06-06 00:50:00,
2013-06-05 20:05:00,76.0,73.0,29.87,South,190,2.0,7.0,90,0.00,,,0.02,weatherlink.com 1.10,2013-06-06 01:05:00,
2013-06-05 20:20:00,75.3,73.0,29.87,East,89,3.0,8.0,92,0.00,,,0.02,weatherlink.com 1.10,2013-06-06 01:20:00,
2013-06-05 20:35:00,75.0,73.0,29.87,ESE,106,3.0,5.0,93,0.00,,,0.02,weatherlink.com 1.10,2013-06-06 01:35:00,
2013-06-05 20:50:00,74.7,73.0,29.88,SW,218,0.0,5.0,93,0.00,,,0.02,weatherlink.com 1.10,2013-06-06 01:50:00,
2013-06-05 21:05:00,74.5,72.0,29.88,SW,217,1.0,9.0,92,0.00,,,0.02,weatherlink.com 1.10,2013-06-06 02:05:00,
2013-06-05 21:20:00,74.4,72.0,29.89,SW,215,0.0,3.0,92,0.00,,,0.02,weatherlink.com 1.10,2013-06-06 02:20:00,
2013-06-05 21:35:00,73.9,72.0,29.89,South,172,0.0,1.0,93,0.00,,,0.02,weatherlink.com 1.10,2013-06-06 02:35:00,
2013-06-05 21:50:00,73.6,72.0,29.89,ESE,120,0.0,2.0,93,0.00,,,0.02,weatherlink.com 1.10,2013-06-06 02:50:00,
2013-06-05 22:05:00,73.4,71.0,29.90,WSW,247,3.0,3.0,93,0.00,,,0.02,weatherlink.com 1.10,2013-06-06 03:05:00,
2013-06-05 22:20:00,73.2,71.0,29.90,SSW,204,0.0,2.0,93,0.00,,,0.02,weatherlink.com 1.10,2013-06-06 03:20:00,
2013-06-05 22:35:00,73.2,71.0,29.91,SE,137,0.0,1.0,93,0.00,,,0.02,weatherlink.com 1.10,2013-06-06 03:35:00,
2013-06-05 22:50:00,72.8,71.0,29.91,SW,231,0.0,2.0,94,0.00,,,0.02,weatherlink.com 1.10,2013-06-06 03:50:00,
2013-06-05 23:05:00,72.3,71.0,29.90,SSE,158,0.0,0.0,95,0.00,,,0.02,weatherlink.com 1.10,2013-06-06 04:05:00,
2013-06-05 23:20:00,72.0,71.0,29.90,SSE,164,0.0,1.0,96,0.00,,,0.02,weatherlink.com 1.10,2013-06-06 04:20:00,
2013-06-05 23:35:00,71.8,71.0,29.90,South,174,0.0,1.0,96,0.01,,,0.03,weatherlink.com 1.10,2013-06-06 04:35:00,
2013-06-05 23:50:00,71.7,71.0,29.89,SSW,207,0.0,1.0,96,0.02,,,0.04,weatherlink.com 1.10,2013-06-06 04:50:00,